Stations météo

réclame
Mon MeteoGroup
List/Sylt, Allemagne (10020): Température de l'air & dewpoint: 11.12.2017 01:00:00 - 17.12.2017 01:00:00 (CET)List/Sylt, Allemagne (10020): Température de l'air 5cm & Température de l'air -5cm: 11.12.2017 01:00:00 - 17.12.2017 01:00:00 (CET)List/Sylt, Allemagne (10020): Température de l'air -20cm: 11.12.2017 01:00:00 - 17.12.2017 01:00:00 (CET)List/Sylt, Allemagne (10020): Vitesse du vent & gusts: 11.12.2017 01:00:00 - 17.12.2017 01:00:00 (CET)List/Sylt, Allemagne (10020): Direction du vent: 11.12.2017 01:00:00 - 17.12.2017 01:00:00 (CET)List/Sylt, Allemagne (10020): reduced air pressure: 11.12.2017 01:00:00 - 17.12.2017 01:00:00 (CET)List/Sylt, Allemagne (10020): visibility: 11.12.2017 01:00:00 - 17.12.2017 01:00:00 (CET)List/Sylt, Allemagne (10020): Ensoleillement: 11.12.2017 01:00:00 - 17.12.2017 01:00:00 (CET)List/Sylt, Allemagne (10020): Quantités de précipitations: 11.12.2017 01:00:00 - 17.12.2017 01:00:00 (CET)
Date & Time tt [°C] td [°C] tt 5cm [°C] tt -5cm [°C] tt -20cm [°C] ff [km/h] ff [knt] fx [km/h] fx [knt] dd ppp [hPa] vv [km] sd [min] rr [mm]
17.12.2017 01:00:00 0,4 -2,7 -1,5 2,3 3,2 17 9 29 15 N 1012,8 70 0 0,0
17.12.2017 00:00:00 0,6 -2,0 -1,5 2,4 3,2 19 10 22 12 N 1011,8 70 0 0,0
16.12.2017 23:00:00 0,7 -2,1 -1,4 2,5 3,3 14 7 18 10 N 1011,0 70 0 0,0
16.12.2017 22:00:00 1,3 -0,8 -1,6 2,6 3,4 11 6 18 10 N 1010,1 47 0 0,0
16.12.2017 21:00:00 0,9 -1,1 -1,5 2,7 3,4 14 7 18 10 NNW 1009,4 56 0 0,0
16.12.2017 20:00:00 1,7 -0,9 -0,4 2,8 3,5 16 9 26 14 NNW 1008,7 48 0 0,0
16.12.2017 19:00:00 2,9 0,6 1,7 3,0 3,5 21 12 37 20 N 1007,9 54 0 0,0
16.12.2017 18:00:00 4,2 0,3 2,8 3,0 3,5 30 16 43 23 NNW 1006,9 49 0 0,0
16.12.2017 17:00:00 3,9 0,3 2,2 3,2 3,5 26 14 49 26 WNW 1006,2 51 0 0,0
16.12.2017 16:00:00 4,4 0,3 2,7 3,3 3,5 34 19 45 25 NW 1005,5 70 0 0,0
16.12.2017 15:00:00 5,2 1,9 4,2 3,4 3,4 21 11 44 24 NW 1004,9 50 18 0,0
16.12.2017 14:00:00 5,5 1,8 4,7 3,3 3,3 22 12 47 25 NW 1004,5 7 42 0,1
16.12.2017 13:00:00 4,8 2,1 3,2 3,1 3,2 17 9 26 14 WNW 1004,3 44 24 0,0
16.12.2017 12:00:00 5,0 2,0 4,7 2,8 3,2 17 9 39 21 WNW 1003,9 29 37 0,1
16.12.2017 11:00:00 4,3 1,2 3,8 2,6 3,2 16 9 41 22 NW 1003,5 49 41 0,0
16.12.2017 10:00:00 3,3 1,1 2,0 2,5 3,2 9 5 19 10 WNW 1003,1 42 11 0,0
16.12.2017 09:00:00 2,5 1,0 1,0 2,5 3,3 25 13 37 20 N 1002,5 70 0 0,1
16.12.2017 08:00:00 3,2 0,8 1,5 2,5 3,3 16 9 27 15 WNW 1001,8 60 0 0,0
16.12.2017 07:00:00 2,9 1,0 0,4 2,6 3,3 12 7 34 18 WNW 1001,3 50 0 0,0
16.12.2017 06:00:00 4,2 1,6 2,9 2,7 3,4 22 12 36 19 NW 1000,8 43 0 0,0
16.12.2017 05:00:00 3,8 1,2 2,2 2,7 3,4 24 13 35 19 NNW 1000,4 43 0 0,0
16.12.2017 04:00:00 4,2 1,7 2,7 2,7 3,4 19 10 24 13 NW 1000,0 39 0 0,0
16.12.2017 03:00:00 4,6 1,8 2,5 2,7 3,5 21 11 34 18 NW 999,5 52 0 0,0
16.12.2017 02:00:00 3,7 1,3 1,8 2,7 3,5 22 12 29 16 NNW 999,1 43 0 0,0
16.12.2017 01:00:00 3,6 0,4 1,0 2,8 3,6 13 7 50 27 WNW 998,9 51 0 0,0
16.12.2017 00:00:00 4,0 1,2 1,5 2,9 3,6 15 8 24 13 NW 998,7 50 0 0,0
15.12.2017 23:00:00 4,2 2,2 2,0 3,0 3,7 15 8 27 15 W 998,2 59 0 0,0
15.12.2017 22:00:00 4,2 2,2 3,0 3,0 3,7 29 15 43 23 NW 997,9 47 0 0,3
15.12.2017 21:00:00 3,6 2,7 1,7 3,1 3,8 14 8 16 9 WSW 997,5 70 0 0,0
15.12.2017 20:00:00 3,7 2,5 1,5 3,3 3,9 14 8 15 8 W 997,2 70 0 0,0
15.12.2017 19:00:00 3,7 2,8 0,1 3,5 3,9 8 5 12 6 W 996,7 65 0 0,0
15.12.2017 18:00:00 4,2 3,5 3,6 3,6 3,9 11 6 18 10 WSW 996,3 52 0 0,0
15.12.2017 17:00:00 3,7 3,0 3,2 3,6 3,9 11 6 14 7 SW 995,9 29 0 0,0
15.12.2017 16:00:00 4,4 3,1 3,2 3,8 3,9 5 3 11 6 WNW 995,2 65 0 0,0
15.12.2017 15:00:00 3,9 3,0 2,6 3,9 3,8 10 5 34 18 NNW 994,5 48 0 0,0
15.12.2017 14:00:00 5,9 4,4 5,7 3,8 3,7 19 10 28 15 WSW 993,7 30 2 0,0
15.12.2017 13:00:00 5,1 3,7 4,7 3,6 3,7 18 10 27 14 SW 993,4 30 0 0,0
15.12.2017 12:00:00 4,9 3,8 4,7 3,4 3,7 14 8 22 12 SW 992,9 38 0 0,0
15.12.2017 11:00:00 3,5 2,7 3,1 3,3 3,6 14 7 21 12 SSW 992,5 43 0 0,0
15.12.2017 10:00:00 3,3 2,4 2,6 3,3 3,6 18 10 23 13 S 991,8 38 0 0,2
15.12.2017 09:00:00 3,3 2,5 2,8 3,3 3,6 12 7 16 8 S 991,1 13 0 2,9
15.12.2017 08:00:00 3,5 2,2 2,9 3,3 3,6 8 5 13 7 NW 990,5 4,4 0 0,7
15.12.2017 07:00:00 3,8 2,3 2,8 3,3 3,6 5 3 14 7 ENE 989,6 60 0 0,1
15.12.2017 06:00:00 4,0 2,6 3,4 3,2 3,6 10 6 21 12 NNE 989,0 22 0 0,2
15.12.2017 05:00:00 4,7 2,9 3,6 3,1 3,6 14 8 19 10 WNW 988,3 50 0 0,1
15.12.2017 04:00:00 4,0 2,6 2,9 3,1 3,6 6 4 17 9 S 987,7 42 0 1,0
15.12.2017 03:00:00 3,8 2,5 2,6 3,2 3,6 14 8 29 16 SW 987,2 70 0 0,4
15.12.2017 02:00:00 4,0 2,5 3,4 3,1 3,6 24 13 37 20 WNW 986,8 51 0 0,7
15.12.2017 01:00:00 4,2 2,9 3,5 3,0 3,6 26 14 44 24 SW 986,4 9 0 0,0
15.12.2017 00:00:00 4,3 2,7 3,4 3,0 3,7 22 12 31 17 SW 986,1 33 0 0,6
14.12.2017 23:00:00 4,1 2,3 2,1 3,1 3,7 17 9 46 25 WSW 986,0 4,1 0 0,6
14.12.2017 22:00:00 3,9 1,7 2,3 3,1 3,7 14 7 25 14 S 985,9 40 0 0,0
14.12.2017 21:00:00 4,6 1,3 2,8 3,1 3,8 18 10 27 15 SW 985,6 46 0 0,0
14.12.2017 20:00:00 3,6 1,1 1,2 3,2 3,8 16 9 22 12 SSW 985,3 37 0 0,0
14.12.2017 19:00:00 3,9 1,0 1,5 3,3 3,9 17 9 49 26 WSW 985,1 52 0 0,0
14.12.2017 18:00:00 3,9 1,0 2,7 3,4 3,9 34 18 55 30 WSW 985,0 6 0 0,1
14.12.2017 17:00:00 4,5 1,5 2,5 3,5 3,9 19 10 49 26 WSW 984,7 51 0 0,0
14.12.2017 16:00:00 5,4 1,0 3,9 3,7 3,9 19 10 27 14 W 984,4 51 0 0,0
14.12.2017 15:00:00 5,0 1,2 3,8 3,7 3,9 16 9 35 19 WSW 984,1 40 0 0,0
14.12.2017 14:00:00 5,1 1,7 4,0 3,7 3,9 25 14 39 21 WSW 983,8 41 0 0,0
14.12.2017 13:00:00 5,4 1,5 4,1 3,6 3,9 28 15 38 21 W 983,3 42 5 0,0
14.12.2017 12:00:00 4,6 -0,3 2,5 3,6 3,9 26 14 57 31 W 983,1 64 0 0,3
14.12.2017 11:00:00 5,7 1,3 4,1 3,5 3,9 26 14 44 24 W 982,7 45 0 0,0
14.12.2017 10:00:00 5,6 1,4 3,7 3,5 3,9 28 15 42 23 W 981,9 48 0 0,0
14.12.2017 09:00:00 5,1 1,3 3,1 3,5 3,9 30 16 52 28 W 981,1 56 0 0,0
14.12.2017 08:00:00 4,5 1,4 3,1 3,6 3,9 39 21 58 31 WNW 980,4 15 0 0,1
14.12.2017 07:00:00 5,2 2,1 4,0 3,6 3,9 34 18 50 27 WNW 979,6 48 0 0,0
14.12.2017 06:00:00 4,9 3,1 4,1 3,7 3,9 40 22 55 30 NW 978,7 38 0 0,0
14.12.2017 05:00:00 5,3 3,3 4,2 3,6 3,9 30 16 54 29 WNW 978,1 41 0 0,0
14.12.2017 04:00:00 3,7 2,6 3,1 3,5 3,9 34 19 57 31 NW 977,5 63 0 1,2
14.12.2017 03:00:00 2,7 2,1 2,4 3,6 3,9 22 12 58 32 SSE 977,1 7 0 1,2
14.12.2017 02:00:00 2,7 1,9 2,4 3,7 3,9 45 24 58 31 SSE 977,6 6 0 1,1
14.12.2017 01:00:00 2,5 1,6 2,2 3,8 3,9 44 24 65 35 S 979,0 7 0 0,8
14.12.2017 00:00:00 4,0 3,4 3,7 3,8 3,9 34 19 49 26 S 980,3 5 0 0,0
13.12.2017 23:00:00 4,1 3,9 4,0 3,8 3,8 36 19 47 25 S 981,7 6 0 0,0
13.12.2017 22:00:00 4,0 3,7 3,9 3,7 3,8 32 17 46 25 SSE 983,1 3,0 0 0,1
13.12.2017 21:00:00 4,0 3,7 3,9 3,7 3,8 35 19 50 27 S 984,6 4,4 0 0,0
13.12.2017 20:00:00 4,2 3,8 3,9 3,6 3,7 37 20 50 27 S 985,9 5 0 0,0
13.12.2017 19:00:00 4,1 3,8 3,9 3,6 3,7 34 18 46 25 S 987,0 7 0 0,1
13.12.2017 18:00:00 4,1 3,8 3,9 3,5 3,7 34 18 44 24 SSW 988,0 7 0 0,6
13.12.2017 17:00:00 3,5 3,1 3,3 3,5 3,7 34 18 53 29 S 989,1 7 0 0,1
13.12.2017 16:00:00 3,5 3,0 3,3 3,4 3,6 36 20 60 32 SSW 990,4 3,8 0 0,2
13.12.2017 15:00:00 3,3 2,5 3,0 3,4 3,6 38 21 62 33 S 991,4 6 0 0,6
13.12.2017 14:00:00 3,5 2,7 3,2 3,4 3,6 45 24 67 36 SSW 992,5 3,5 0 0,2
13.12.2017 13:00:00 3,6 2,8 3,3 3,3 3,5 46 25 73 39 SSW 993,9 6 0 0,1
13.12.2017 12:00:00 3,6 2,4 3,1 3,3 3,5 53 29 71 38 SSW 995,1 10 0 0,1
13.12.2017 11:00:00 3,4 2,2 2,9 3,2 3,5 50 27 76 41 S 996,4 6 0 0,0
13.12.2017 10:00:00 3,4 2,1 2,9 3,2 3,5 57 31 77 42 S 997,5 5 0 0,1
13.12.2017 09:00:00 3,6 1,9 2,9 3,1 3,4 48 26 74 40 S 998,7 7 0 0,2
13.12.2017 08:00:00 3,8 1,6 3,3 3,1 3,4 45 24 69 38 S 1000,3 10 0 0,0
13.12.2017 07:00:00 3,6 1,4 2,9 3,1 3,4 43 23 68 37 S 1000,9 11 0 0,0
13.12.2017 06:00:00 3,8 1,2 3,1 3,1 3,4 43 23 63 34 SSW 1002,2 13 0 0,0
13.12.2017 05:00:00 3,8 1,5 3,2 3,0 3,3 42 23 61 33 SSW 1003,2 13 0 0,0
13.12.2017 04:00:00 3,8 1,8 3,1 3,0 3,3 43 23 69 37 SSW 1004,0 12 0 0,0
13.12.2017 03:00:00 4,3 1,9 3,3 3,0 3,3 49 27 67 36 SSW 1004,1 17 0 0,0
13.12.2017 02:00:00 5,1 2,4 3,4 2,9 3,2 44 24 67 36 SW 1004,1 28 0 0,0
13.12.2017 01:00:00 4,9 3,2 3,4 2,8 3,2 35 19 68 37 SW 1004,6 22 0 0,0
13.12.2017 00:00:00 5,3 1,7 3,2 2,7 3,2 34 18 56 30 SW 1004,8 44 0 0,0
12.12.2017 23:00:00 5,1 2,5 3,7 2,6 3,1 29 16 55 30 SW 1004,6 41 0 0,4
12.12.2017 22:00:00 5,4 1,1 4,0 2,5 3,1 29 16 41 22 SW 1004,9 49 0 0,0
12.12.2017 21:00:00 4,8 0,5 2,9 2,5 3,2 25 14 36 20 SW 1004,9 64 0 0,0
12.12.2017 20:00:00 5,1 -0,1 3,0 2,6 3,2 24 13 44 24 WSW 1005,0 61 0 0,0
12.12.2017 19:00:00 5,3 -0,1 4,2 2,6 3,2 27 15 49 27 W 1004,5 70 0 0,0
12.12.2017 18:00:00 4,0 1,1 2,4 2,5 3,2 16 9 37 20 W 1004,2 62 0 0,0
12.12.2017 17:00:00 3,8 0,0 1,4 2,6 3,2 16 9 27 15 WNW 1003,7 70 0 0,0
12.12.2017 16:00:00 3,9 -0,7 2,2 2,7 3,2 23 12 34 18 WNW 1002,6 64 22 0,0
12.12.2017 15:00:00 4,1 -1,0 3,2 2,8 3,1 23 13 40 22 NW 1001,4 22 18 0,0
12.12.2017 14:00:00 3,8 -1,0 3,2 2,8 3,1 24 13 36 20 NNW 1000,4 38 13 0,0
12.12.2017 13:00:00 3,9 -1,1 4,4 2,6 3,0 28 15 42 23 N 999,3 22 40 0,0
12.12.2017 12:00:00 3,5 -1,0 3,7 2,5 3,0 31 17 45 24 N 998,5 9 60 0,0
12.12.2017 11:00:00 2,7 -0,1 2,5 2,4 3,0 31 17 52 28 N 997,4 30 3 0,0
12.12.2017 10:00:00 2,3 -0,4 1,6 2,3 3,0 39 21 57 31 N 995,5 50 0 0,0
12.12.2017 09:00:00 2,0 -0,2 1,5 2,3 3,0 38 21 61 33 N 994,0 33 0 0,0
12.12.2017 08:00:00 1,8 -0,4 1,4 2,3 3,0 47 25 60 33 N 991,8 39 0 0,0
12.12.2017 07:00:00 1,6 -0,2 1,1 2,3 3,0 42 23 55 30 N 990,8 43 0 0,0
12.12.2017 06:00:00 1,6 0,0 1,2 2,3 3,0 35 19 53 29 N 989,8 32 0 0,0
12.12.2017 05:00:00 1,3 -0,2 0,9 2,3 3,0 36 19 53 28 N 988,4 33 0 0,0
12.12.2017 04:00:00 1,2 0,0 0,8 2,3 3,0 40 22 57 31 N 987,6 25 0 0,0
12.12.2017 03:00:00 0,8 -0,3 0,2 2,3 3,0 42 23 54 29 N 986,9 19 0 0,0
12.12.2017 02:00:00 0,6 -0,4 0,1 2,3 3,0 35 19 51 27 N 986,7 15 0 0,0
12.12.2017 01:00:00 0,3 -0,6 -0,1 2,3 3,0 36 19 51 28 NNE 986,5 10 0 0,0
12.12.2017 00:00:00 0,0 -0,8 -0,3 2,3 3,0 36 19 49 26 NNE 986,4 8 0 0,0
11.12.2017 23:00:00 0,1 -1,1 -0,2 2,3 3,1 34 18 46 25 NNE 986,5 9 0 0,0
11.12.2017 22:00:00 -0,1 -1,1 -0,4 2,3 3,1 35 19 51 28 NNE 986,6 11 0 0,0
11.12.2017 21:00:00 0,2 -1,0 -0,2 2,3 3,1 32 17 49 27 NNE 986,8 10 0 0,0
11.12.2017 20:00:00 0,0 -1,0 -0,3 2,3 3,1 32 17 44 24 NNE 986,7 12 0 0,0
11.12.2017 19:00:00 0,0 -0,9 -0,2 2,3 3,1 31 17 48 26 NNE 987,2 1,6 0 0,2
11.12.2017 18:00:00 0,4 -1,4 0,0 2,3 3,1 27 14 39 21 NNE 987,4 18 0 0,0
11.12.2017 17:00:00 0,5 -1,5 0,1 2,4 3,1 28 15 37 20 NE 986,6 17 0 0,0
11.12.2017 16:00:00 0,4 -1,4 0,0 2,4 3,1 25 14 35 19 NE 986,3 16 0 0,0
11.12.2017 15:00:00 0,3 -1,6 -0,1 2,4 3,2 23 12 30 16 NE 987,0 20 0 0,0
11.12.2017 14:00:00 0,6 -1,3 0,1 2,4 3,2 17 9 29 15 ENE 987,8 18 0 0,0
11.12.2017 13:00:00 0,5 -1,4 0,1 2,4 3,2 20 11 32 17 NE 987,6 15 0 0,0
11.12.2017 12:00:00 0,4 -1,7 -0,1 2,4 3,2 16 9 26 14 ENE 988,9 15 0 0,0
11.12.2017 11:00:00 0,4 -1,9 -0,4 2,4 3,2 19 10 29 16 ENE 988,7 20 0 0,0
11.12.2017 10:00:00 0,2 -2,1 -0,7 2,4 3,3 21 11 30 16 NE 987,0 24 0 0,0
11.12.2017 09:00:00 0,1 -2,4 -1,2 2,4 3,3 16 9 32 17 NE 986,3 34 0 0,0
11.12.2017 08:00:00 0,2 -2,5 -1,2 2,5 3,3 19 10 25 13 NE 986,4 37 0 0,0
11.12.2017 07:00:00 0,2 -3,0 -1,8 2,5 3,4 16 9 29 15 ENE 987,2 55 0 0,0
11.12.2017 06:00:00 0,2 -2,4 -1,3 2,6 3,4 21 11 36 19 ENE 985,5 38 0 0,0
11.12.2017 05:00:00 0,9 -2,5 -0,1 2,6 3,4 22 12 36 20 ENE 984,4 66 0 0,0
11.12.2017 04:00:00 0,3 -2,2 -0,4 2,6 3,4 20 11 32 17 NE 983,7 40 0 0,0
11.12.2017 03:00:00 0,6 -1,0 -0,1 2,6 3,4 22 12 31 17 NE 982,5 34 0 0,0
11.12.2017 02:00:00 0,2 -1,0 -0,3 2,6 3,5 16 9 22 12 NNE 981,3 23 0 0,0
11.12.2017 01:00:00 0,1 -2,0 -0,6 2,7 3,5 19 10 26 14 E 980,9 50 0 0,0

tt = Température de l'air
td = dewpoint
tt 5cm = Température de l'air 5cm
tt -5cm = Température de l'air -5cm
tt -20cm = Température de l'air -20cm
ff = Vitesse du vent
fx = gusts
dd = Direction du vent
ppp = reduced air pressure
vv = visibility
sd = Ensoleillement
rr = Quantités de précipitations

stations d'obs. à proximité